Wind_Speed
13 12 11 10 10 11 11 11 11 9 11 14 15 17 19 21 24 25 26 27 27 30 30 30 30 31 32 33 32 31 31 31 30 30 31 32 30 29 27 28 29 30 31 32
13 13 12 11 10 11 11 11 10 10 12 15 17 19 21 23 26 26 26 27 28 28 29 31 31 31 32 31 31 32 30 29 30 30 30 30 30 29 29 29 29 28 27 28
14 14 14 11 9 8 10 11 12 14 15 17 21 23 24 25 26 26 27 27 28 27 26 28 30 31 30 30 30 30 29 28 28 29 29 29 29 29 29 27 27 27 27 27
16 15 13 10 8 8 10 11 13 15 17 18 21 24 24 24 26 27 26 26 25 25 25 26 28 28 29 29 28 27 27 26 27 29 30 30 29 29 27 26 26 26 24 26
15 15 13 11 9 8 10 11 13 15 16 18 20 23 23 24 24 24 24 23 22 22 23 24 25 26 26 26 25 26 26 26 26 28 28 28 29 28 27 26 25 23 23 24
14 14 11 9 8 9 10 12 13 14 15 16 17 20 21 21 22 23 21 21 22 23 22 22 23 23 24 24 25 25 25 26 26 27 27 28 28 27 26 25 24 24 23 22
13 11 9 8 8 10 12 13 13 12 13 14 15 18 18 18 19 19 20 20 21 21 20 20 21 21 21 21 22 23 24 25 25 26 26 27 28 26 25 25 24 23 22 21
12 10 9 8 9 9 11 12 12 13 14 14 15 18 17 17 18 18 17 17 18 17 19 20 20 20 20 20 20 21 22 23 24 24 25 26 26 25 24 24 23 22 21 21
11 9 8 8 10 11 11 11 11 14 15 15 16 17 18 17 17 17 17 16 15 16 17 17 18 19 19 19 19 19 21 22 22 21 22 23 23 23 22 22 22 22 22 21
11 9 9 9 10 12 12 11 12 13 15 16 16 17 18 17 17 16 15 13 13 14 14 15 16 17 17 17 17 18 18 19 20 20 20 20 20 20 21 21 21 22 21 19
11 10 10 10 10 11 13 13 13 14 15 16 17 17 17 17 17 15 13 11 13 13 14 15 15 15 15 15 15 16 17 17 17 18 18 18 18 19 19 20 20 19 19 18
13 12 11 11 11 12 13 14 15 15 15 16 18 18 18 16 16 15 14 14 13 14 14 13 14 14 13 14 15 16 16 16 16 17 17 18 18 19 19 19 19 18 18 18
15 13 11 11 12 12 13 14 15 15 15 16 17 18 18 17 16 16 15 15 14 15 14 14 13 13 13 13 14 15 16 16 16 17 18 18 19 19 19 19 19 19 18 18
15 13 11 11 12 13 14 14 15 14 14 15 16 17 18 18 17 17 16 15 14 15 15 14 14 14 14 14 13 14 15 16 16 17 18 18 18 19 19 20 20 20 20 20
13 12 12 12 12 13 14 15 14 14 14 15 16 17 18 18 18 18 17 17 16 16 16 16 16 15 15 15 15 15 15 16 16 16 16 18 19 20 21 21 20 20 21 22
14 14 13 12 12 13 13 13 14 14 15 15 16 17 18 18 19 19 18 18 17 17 17 17 16 16 16 16 16 17 17 17 17 17 18 18 18 19 19 20 20 20 20 21
15 14 13 12 12 12 13 13 14 14 14 16 17 17 18 19 20 19 19 19 18 18 18 17 17 17 17 17 17 17 17 17 18 18 18 18 19 18 18 18 20 21 20 20
15 14 13 13 13 13 12 13 13 13 14 16 16 18 19 20 20 20 20 19 19 19 18 18 18 17 18 17 17 17 17 17 17 18 18 18 19 19 19 19 19 19 19 19
16 14 13 13 13 13 12 12 13 14 15 16 16 18 19 20 20 20 20 20 20 19 18 18 18 17 17 16 16 16 17 17 17 17 17 17 18 17 17 18 19 19 19 19
17 16 15 14 14 14 13 13 14 16 16 17 17 18 20 20 20 20 20 20 19 19 18 17 16 16 16 15 14 15 15 15 15 15 15 16 16 16 16 16 17 17 17 17
18 16 15 13 13 13 12 12 13 15 16 17 18 18 20 20 20 20 20 19 18 17 16 15 14 13 12 12 11 11 11 11 12 12 13 14 14 14 14 14 14 15 16 16
17 14 12 11 11 10 10 10 12 14 16 17 18 19 19 19 20 19 18 17 16 15 13 13 11 10 10 9 9 9 9 9 9 10 10 10 11 11 11 11 12 13 14 15
17 14 11 10 9 8 8 9 11 13 14 16 18 18 18 18 18 17 16 15 14 13 11 10 8 7 7 7 7 7 8 8 9 8 9 9 10 10 11 11 12 12 12 12
14 13 11 8 6 5 6 7 9 12 14 16 16 16 17 17 16 15 14 13 12 11 9 7 6 5 5 5 6 6 6 6 7 8 8 9 9 9 9 10 10 10 9 10
13 10 9 8 5 4 5 7 10 12 14 15 15 16 16 15 15 14 13 12 11 9 7 6 5 5 4 4 4 5 5 6 6 6 7 8 8 8 8 8 8 7 7 7
12 10 7 5 2 2 4 7 10 11 13 14 15 16 16 15 14 13 12 11 9 8 6 5 4 4 3 2 2 2 2 3 4 5 5 6 6 6 6 6 6 6 6 6
Wind_Direction
204 203 201 199 203 213 223 231 238 251 268 269 273 278 282 283 282 281 282 282 277 273 271 269 268 267 268 267 264 262 263 256 254 251 251 252 250 252 252 251 250 247 246 243
200 197 193 197 211 224 238 251 256 252 262 267 268 274 279 281 281 280 281 280 277 279 272 269 268 267 267 267 265 262 264 259 254 253 252 250 252 255 255 254 252 248 247 241
199 195 197 201 214 238 254 265 265 256 255 262 266 268 272 276 279 282 283 285 281 277 273 269 269 267 268 267 265 263 263 260 256 255 254 251 251 254 253 255 252 249 249 244
200 199 201 209 226 251 267 269 269 267 262 262 265 269 271 275 277 280 282 284 283 277 273 272 271 269 268 269 268 264 263 258 256 255 255 253 251 255 255 256 255 249 249 247
204 206 207 216 231 258 274 275 276 276 274 271 270 275 277 277 278 281 285 284 283 278 275 273 271 269 267 267 267 266 264 258 256 254 255 253 253 255 258 256 255 253 251 248
210 217 221 231 238 254 269 274 280 283 284 282 283 284 285 286 285 284 287 285 283 277 274 272 272 272 271 270 269 266 264 262 259 257 256 255 253 255 255 255 252 252 250 247
210 213 226 239 250 251 261 274 282 288 291 295 296 294 295 293 292 293 293 289 288 280 271 270 272 274 275 274 271 266 263 261 260 259 259 257 255 255 255 255 253 249 249 247
211 214 236 255 262 263 265 276 286 298 302 305 304 304 305 303 300 297 291 292 289 280 276 275 276 276 275 273 272 267 264 261 259 259 260 258 256 256 253 249 249 249 252 250
219 224 243 255 268 268 270 280 290 296 303 309 313 313 314 312 312 304 297 296 293 285 281 280 278 278 275 269 267 266 264 260 260 260 258 257 256 253 250 249 249 246 247 246
228 239 248 260 270 271 276 281 286 292 302 310 314 319 323 320 321 316 308 303 301 294 288 287 285 280 275 268 266 263 262 260 259 260 257 256 252 250 250 251 251 249 250 247
232 247 254 265 270 273 276 279 284 290 298 306 315 323 328 326 325 325 319 310 306 297 294 292 288 285 278 271 268 265 262 263 261 258 253 253 252 252 253 254 254 251 251 253
234 247 256 265 271 275 276 278 281 287 297 304 312 320 326 327 327 325 322 315 310 305 299 295 294 289 282 276 270 266 265 264 262 257 252 251 253 251 250 252 252 250 251 252
237 249 259 268 273 272 271 276 279 286 296 305 309 315 321 324 324 322 321 318 311 306 303 297 296 293 288 280 272 268 264 263 261 257 252 250 250 249 248 249 251 251 251 250
242 252 263 269 269 267 269 274 275 280 293 303 309 313 317 320 320 321 320 319 314 308 305 302 298 293 289 284 277 270 266 262 258 256 252 248 248 249 249 247 248 249 249 249
248 259 266 268 268 269 269 273 278 286 297 304 310 313 317 320 320 319 318 315 312 308 306 303 300 293 288 284 280 273 270 266 259 255 253 249 247 247 246 244 244 245 245 247
251 260 263 267 268 269 271 275 280 289 298 305 311 314 316 318 318 317 317 313 309 306 304 302 299 293 288 283 280 274 270 266 260 254 253 253 249 247 245 245 245 246 248 248
254 258 258 260 265 268 270 281 286 289 303 310 312 314 316 316 315 315 313 310 308 305 302 299 297 292 289 284 279 274 269 266 262 256 252 251 249 248 249 246 246 247 248 248
248 251 256 261 263 267 277 281 285 294 302 306 308 311 314 315 315 314 312 310 307 304 301 296 293 291 290 286 278 271 268 265 260 253 249 248 247 247 246 246 246 245 246 249
243 249 253 258 262 269 280 290 294 300 304 307 311 313 316 318 317 316 314 311 309 307 302 297 293 290 288 284 276 272 268 262 257 252 248 245 244 245 247 247 248 248 248 247
237 245 250 258 266 273 282 288 295 302 307 311 316 318 319 320 319 318 316 313 311 308 305 300 293 287 282 276 274 270 264 262 259 251 246 245 243 244 245 244 245 244 245 244
230 240 248 257 271 281 288 296 301 306 313 316 319 320 321 321 320 320 319 316 313 310 306 301 296 288 284 277 272 266 260 254 250 247 245 242 239 238 238 239 239 239 241 240
227 234 243 257 271 284 293 300 308 313 317 321 323 323 324 325 324 324 322 319 317 313 309 306 299 289 283 277 267 262 256 249 245 243 241 235 233 232 234 233 233 235 238 238
226 231 244 259 271 280 296 308 313 317 322 324 326 327 328 329 330 329 328 325 321 318 314 310 302 290 282 277 269 261 253 247 242 237 233 230 230 229 230 229 231 233 237 240
223 231 246 255 263 286 308 321 328 329 329 332 335 336 337 338 338 336 334 330 327 325 322 316 312 301 291 285 274 261 249 240 233 233 232 230 227 229 227 230 231 232 237 244
222 224 234 240 257 286 311 332 336 337 341 344 345 345 346 347 346 344 341 338 336 334 333 330 326 320 307 293 276 255 247 244 236 233 233 229 228 228 227 226 227 229 233 237
221 219 218 212 236 312 347 353 347 350 353 353 352 353 354 355 353 352 351 349 349 352 356 357 355 354 347 327 291 251 235 230 230 222 214 212 210 214 216 214 215 218 222 227
Height
5801 5804 5805 5807 5808 5809 5809 5810 5811 5812 5811 5810 5809 5809 5810 5809 5809 5808 5808 5807 5806 5805 5804 5804 5803 5803 5803 5803 5804 5805 5806 5805 5808 5811 5813 5814 5814 5815 5817 5818 5818 5820 5821 5823
5800 5801 5803 5803 5805 5805 5806 5807 5808 5809 5808 5807 5806 5806 5806 5805 5804 5803 5802 5801 5800 5798 5796 5796 5796 5796 5796 5796 5797 5797 5798 5799 5801 5803 5804 5806 5808 5809 5810 5811 5812 5814 5815 5816
5797 5799 5799 5800 5801 5802 5803 5804 5804 5804 5804 5803 5803 5802 5801 5800 5798 5797 5796 5795 5793 5792 5790 5789 5789 5790 5790 5790 5790 5791 5792 5793 5795 5797 5797 5799 5801 5803 5804 5805 5807 5808 5809 5810
5794 5795 5796 5797 5798 5799 5800 5801 5800 5800 5800 5799 5799 5797 5796 5794 5792 5790 5789 5787 5786 5785 5784 5783 5783 5783 5783 5783 5784 5785 5786 5787 5789 5790 5792 5793 5795 5797 5798 5799 5800 5802 5802 5804
5792 5793 5793 5794 5795 5796 5797 5797 5797 5796 5795 5794 5793 5792 5791 5789 5787 5785 5783 5781 5780 5779 5778 5778 5777 5777 5777 5777 5777 5778 5780 5781 5782 5784 5785 5787 5789 5791 5793 5794 5794 5796 5797 5798
5789 5790 5791 5791 5792 5793 5793 5794 5793 5792 5791 5791 5789 5787 5786 5784 5782 5780 5778 5776 5774 5773 5772 5772 5771 5771 5771 5771 5771 5772 5773 5775 5776 5777 5779 5781 5782 5785 5787 5788 5789 5791 5793 5793
5788 5789 5789 5789 5789 5790 5790 5790 5790 5789 5788 5787 5785 5782 5781 5779 5777 5775 5773 5771 5769 5767 5767 5767 5766 5765 5765 5765 5765 5766 5768 5769 5771 5772 5773 5775 5776 5779 5781 5783 5784 5785 5787 5787
5785 5787 5787 5787 5787 5787 5787 5787 5787 5786 5784 5783 5781 5778 5778 5774 5772 5769 5768 5766 5765 5763 5763 5762 5761 5761 5760 5760 5760 5761 5763 5764 5765 5766 5767 5769 5771 5773 5775 5776 5778 5780 5781 5782
5783 5785 5784 5784 5784 5784 5784 5784 5783 5782 5781 5779 5777 5775 5773 5771 5768 5765 5763 5762 5761 5760 5759 5758 5756 5756 5755 5755 5756 5757 5757 5758 5759 5761 5762 5763 5765 5767 5769 5770 5772 5774 5776 5777
5780 5781 5782 5782 5782 5781 5782 5781 5780 5779 5777 5776 5774 5772 5770 5767 5764 5762 5759 5758 5757 5756 5754 5753 5752 5751 5750 5750 5751 5751 5752 5754 5754 5756 5757 5758 5760 5762 5764 5765 5766 5768 5769 5771
5777 5778 5779 5779 5779 5779 5779 5778 5777 5776 5775 5773 5770 5771 5767 5763 5760 5758 5756 5755 5753 5751 5750 5749 5747 5746 5746 5745 5746 5747 5747 5748 5749 5750 5751 5753 5755 5757 5758 5760 5761 5762 5764 5766
5774 5775 5776 5776 5776 5776 5775 5775 5774 5774 5772 5770 5768 5769 5763 5760 5758 5755 5753 5751 5749 5748 5746 5745 5743 5742 5741 5741 5741 5741 5742 5742 5743 5745 5746 5748 5749 5752 5753 5754 5756 5757 5759 5760
5771 5773 5773 5773 5775 5774 5772 5772 5771 5770 5769 5767 5765 5765 5760 5757 5754 5752 5750 5748 5746 5744 5742 5741 5739 5738 5737 5736 5736 5737 5737 5737 5738 5739 5740 5742 5744 5746 5748 5749 5750 5752 5753 5755
5769 5770 5771 5771 5770 5770 5769 5768 5767 5767 5765 5764 5762 5760 5757 5754 5751 5748 5746 5744 5741 5740 5738 5736 5735 5734 5733 5732 5732 5732 5732 5732 5733 5734 5735 5736 5738 5740 5742 5743 5745 5746 5748 5749
5766 5767 5767 5768 5767 5766 5766 5765 5764 5763 5762 5760 5758 5755 5753 5750 5747 5744 5742 5739 5737 5735 5733 5732 5730 5729 5728 5727 5727 5727 5727 5727 5728 5728 5729 5730 5732 5734 5736 5737 5739 5741 5742 5743
5763 5764 5765 5765 5764 5763 5762 5761 5761 5760 5758 5756 5754 5752 5749 5746 5743 5740 5737 5735 5732 5730 5728 5727 5725 5724 5723 5722 5721 5721 5721 5722 5722 5723 5724 5725 5726 5727 5729 5731 5732 5734 5736 5737
5759 5760 5761 5761 5760 5760 5759 5759 5757 5756 5755 5752 5750 5748 5744 5742 5739 5736 5733 5730 5727 5725 5723 5721 5720 5718 5717 5716 5715 5715 5715 5715 5716 5717 5718 5719 5720 5721 5723 5724 5726 5728 5729 5730
5756 5757 5757 5758 5758 5757 5758 5754 5753 5753 5751 5749 5746 5743 5740 5737 5734 5730 5727 5724 5722 5719 5717 5715 5713 5712 5711 5709 5709 5708 5708 5709 5709 5710 5711 5713 5714 5716 5717 5719 5720 5722 5723 5724
5752 5753 5753 5754 5754 5753 5753 5751 5749 5748 5747 5744 5741 5738 5735 5732 5728 5725 5722 5719 5716 5713 5711 5709 5707 5706 5705 5704 5703 5702 5702 5703 5703 5704 5706 5707 5708 5710 5711 5713 5714 5716 5717 5719
5748 5749 5750 5750 5750 5750 5751 5748 5746 5745 5743 5740 5737 5733 5730 5727 5723 5720 5716 5713 5710 5707 5705 5703 5701 5700 5699 5698 5697 5697 5697 5697 5698 5699 5700 5702 5703 5704 5706 5707 5709 5710 5712 5713
5745 5746 5746 5747 5746 5746 5746 5744 5743 5742 5740 5736 5732 5729 5725 5722 5719 5715 5711 5707 5704 5702 5700 5698 5696 5694 5693 5693 5692 5692 5692 5693 5694 5695 5696 5697 5698 5700 5701 5703 5704 5705 5707 5709
5740 5742 5743 5743 5743 5744 5742 5740 5739 5738 5734 5731 5727 5724 5721 5717 5713 5709 5706 5703 5700 5697 5695 5693 5691 5690 5689 5689 5689 5689 5689 5689 5690 5691 5692 5693 5694 5695 5697 5698 5700 5701 5703 5704
5737 5739 5739 5740 5741 5740 5739 5737 5735 5733 5731 5727 5724 5720 5716 5713 5709 5705 5702 5699 5696 5694 5691 5689 5688 5687 5686 5686 5685 5685 5686 5686 5687 5688 5689 5690 5691 5692 5693 5695 5696 5698 5699 5700
5733 5734 5735 5736 5737 5737 5736 5735 5733 5730 5727 5724 5720 5716 5713 5709 5705 5702 5699 5696 5693 5691 5688 5687 5685 5684 5683 5683 5683 5683 5683 5683 5684 5685 5686 5687 5688 5689 5690 5692 5693 5694 5695 5696
5730 5731 5732 5733 5735 5735 5734 5732 5730 5728 5724 5721 5717 5714 5710 5706 5703 5699 5696 5693 5691 5688 5686 5684 5683 5682 5681 5681 5680 5680 5681 5681 5682 5683 5684 5685 5686 5687 5688 5689 5690 5691 5692 5694
5727 5729 5730 5731 5732 5732 5731 5730 5728 5725 5723 5719 5716 5712 5708 5705 5701 5698 5695 5692 5689 5687 5685 5683 5682 5681 5680 5679 5679 5679 5679 5679 5680 5681 5681 5683 5684 5685 5686 5687 5688 5689 5691 5692